• în România
  • Lista ţărilor
  • Pe 7 zile
  • Temperatura apei
  • Hartă satelitară
  • Meteo pe hartă
  • Widget-uri
  • user-avatar
    Intrare

    Meteo pe oră la Trogir

    Astăzi, 22 Februarie, Joi

    Timp Temperatura Precipitaţii Vânt Presiune Umiditate
    00:00 +4°C° 1,1 mm 7 m/s 750 mmHg 78%
    01:00 +4°C° 0 mm 6 m/s 750 mmHg 80%
    02:00 +3°C° 1,6 mm 6 m/s 750 mmHg 83%
    03:00 +3°C° 1,6 mm 6 m/s 749 mmHg 85%
    04:00 +3°C° 1,6 mm 6 m/s 749 mmHg 87%
    05:00 +3°C° 0,6 mm 5 m/s 750 mmHg 86%
    06:00 +3°C° 0,6 mm 5 m/s 750 mmHg 86%
    07:00 +5°C° 0,6 mm 5 m/s 750 mmHg 85%
    08:00 +5°C° 0,1 mm 5 m/s 751 mmHg 84%
    09:00 +6°C° 0,1 mm 5 m/s 751 mmHg 82%
    10:00 +7°C° 0,1 mm 5 m/s 752 mmHg 81%
    11:00 +7°C° 0,1 mm 5 m/s 752 mmHg 81%
    12:00 +8°C° 0,1 mm 5 m/s 752 mmHg 81%
    13:00 +9°C° 0,1 mm 5 m/s 752 mmHg 81%
    14:00 +9°C° 0,2 mm 5 m/s 752 mmHg 81%
    15:00 +9°C° 0,2 mm 6 m/s 752 mmHg 82%
    16:00 +9°C° 0,2 mm 6 m/s 752 mmHg 82%
    17:00 +9°C° 0,5 mm 6 m/s 753 mmHg 82%
    18:00 +8°C° 0,5 mm 6 m/s 753 mmHg 83%
    19:00 +8°C° 0,5 mm 6 m/s 753 mmHg 83%
    20:00 +7°C° 0,4 mm 6 m/s 753 mmHg 82%
    21:00 +6°C° 0,4 mm 7 m/s 753 mmHg 80%
    22:00 +6°C° 0,4 mm 7 m/s 753 mmHg 79%
    23:00 +6°C° 0,1 mm 7 m/s 753 mmHg 79%

    Mâine, 23 Februarie, Vineri

    Timp Temperatura Precipitaţii Vânt Presiune Umiditate
    00:00 +6°C° 0,1 mm 8 m/s 753 mmHg 78%
    01:00 +6°C° 0,1 mm 8 m/s 752 mmHg 78%
    02:00 +6°C° 0,5 mm 8 m/s 752 mmHg 79%
    03:00 +6°C° 0,5 mm 9 m/s 752 mmHg 80%
    04:00 +6°C° 0,5 mm 9 m/s 752 mmHg 81%
    05:00 +6°C° 0,8 mm 9 m/s 752 mmHg 81%
    06:00 +6°C° 0,8 mm 8 m/s 752 mmHg 81%
    07:00 +6°C° 0,8 mm 8 m/s 752 mmHg 81%
    08:00 +6°C° 0,9 mm 8 m/s 752 mmHg 82%
    09:00 +6°C° 0,9 mm 8 m/s 752 mmHg 82%
    10:00 +8°C° 0,9 mm 7 m/s 753 mmHg 82%
    11:00 +7°C° 0,7 mm 8 m/s 753 mmHg 81%
    12:00 +9°C° 0,7 mm 8 m/s 753 mmHg 81%
    13:00 +9°C° 0,7 mm 8 m/s 753 mmHg 80%
    14:00 +9°C° 0,1 mm 8 m/s 753 mmHg 78%
    15:00 +10°C° 0,1 mm 8 m/s 753 mmHg 77%
    16:00 +10°C° 0,1 mm 7 m/s 753 mmHg 76%
    17:00 +10°C° 0,1 mm 7 m/s 753 mmHg 76%
    18:00 +9°C° 0,1 mm 7 m/s 753 mmHg 75%
    19:00 +9°C° 0,1 mm 7 m/s 753 mmHg 75%
    20:00 +8°C° 0 mm 7 m/s 753 mmHg 75%
    21:00 +8°C° 0 mm 7 m/s 753 mmHg 74%
    22:00 +8°C° 0 mm 7 m/s 754 mmHg 74%
    23:00 +8°C° 0 mm 7 m/s 753 mmHg 74%

    Poimâine, 24 Februarie, Sâmbătă

    Timp Temperatura Precipitaţii Vânt Presiune Umiditate
    00:00 +8°C° 0 mm 7 m/s 753 mmHg 74%
    01:00 +6°C° 0 mm 7 m/s 753 mmHg 75%
    02:00 +6°C° 0 mm 7 m/s 753 mmHg 75%
    03:00 +6°C° 0 mm 7 m/s 753 mmHg 75%
    04:00 +7°C° 0 mm 6 m/s 753 mmHg 75%
    05:00 +7°C° 0 mm 6 m/s 753 mmHg 75%
    06:00 +7°C° 0 mm 6 m/s 753 mmHg 75%
    07:00 +5°C° 0 mm 6 m/s 754 mmHg 75%
    08:00 +8°C° 0 mm 6 m/s 754 mmHg 73%
    09:00 +9°C° 0 mm 6 m/s 754 mmHg 71%
    10:00 +10°C° 0 mm 5 m/s 754 mmHg 69%
    11:00 +10°C° 0 mm 5 m/s 754 mmHg 68%
    12:00 +12°C° 0 mm 5 m/s 754 mmHg 67%
    13:00 +12°C° 0 mm 4 m/s 754 mmHg 66%
    14:00 +12°C° 0 mm 4 m/s 754 mmHg 66%
    15:00 +11°C° 0 mm 4 m/s 754 mmHg 67%
    16:00 +11°C° 0 mm 4 m/s 754 mmHg 68%
    17:00 +10°C° 0 mm 4 m/s 755 mmHg 69%
    18:00 +8°C° 0 mm 5 m/s 755 mmHg 71%
    19:00 +7°C° 0 mm 5 m/s 755 mmHg 72%
    20:00 +6°C° 0 mm 5 m/s 755 mmHg 72%
    21:00 +6°C° 0 mm 5 m/s 755 mmHg 72%
    22:00 +5°C° 0 mm 5 m/s 756 mmHg 72%
    23:00 +5°C° 0 mm 5 m/s 756 mmHg 72%

    25 Februarie, Duminică

    Timp Temperatura Precipitaţii Vânt Presiune Umiditate
    00:00 +4°C° 0 mm 6 m/s 755 mmHg 71%
    01:00 +4°C° 0 mm 6 m/s 755 mmHg 71%
    02:00 +3°C° 0,1 mm 6 m/s 755 mmHg 70%
    03:00 +3°C° 0,1 mm 6 m/s 755 mmHg 70%
    04:00 +3°C° 0,1 mm 6 m/s 755 mmHg 69%
    05:00 +2°C° 0,5 mm 6 m/s 755 mmHg 70%
    06:00 +2°C° 0,5 mm 6 m/s 755 mmHg 71%
    07:00 +1°C° 0,5 mm 6 m/s 755 mmHg 72%
    08:00 +1°C° 1 mm 6 m/s 755 mmHg 77%
    09:00 -1°C° 1 mm 7 m/s 755 mmHg 81%
    10:00 -1°C° 1 mm 7 m/s 755 mmHg 86%
    11:00 -1°C° 0,3 mm 7 m/s 755 mmHg 84%
    12:00 -1°C° 0,3 mm 7 m/s 755 mmHg 81%
    13:00 -1°C° 0,3 mm 7 m/s 755 mmHg 79%
    14:00 -1°C° 0,1 mm 7 m/s 755 mmHg 79%
    15:00 -1°C° 0,1 mm 7 m/s 755 mmHg 79%
    16:00 -1°C° 0,1 mm 6 m/s 755 mmHg 79%
    17:00 -1°C° 0,3 mm 6 m/s 755 mmHg 80%
    18:00 -2°C° 0,3 mm 6 m/s 755 mmHg 82%
    19:00 -2°C° 0,3 mm 6 m/s 755 mmHg 83%
    20:00 -2°C° 0,2 mm 6 m/s 755 mmHg 84%
    21:00 -2°C° 0,2 mm 5 m/s 755 mmHg 84%
    22:00 -2°C° 0,2 mm 5 m/s 755 mmHg 84%
    23:00 -2°C° 0,2 mm 5 m/s 755 mmHg 85%

    26 Februarie, Luni

    Timp Temperatura Precipitaţii Vânt Presiune Umiditate
    00:00 -2°C° 0,2 mm 5 m/s 754 mmHg 85%
    01:00 -2°C° 0,2 mm 5 m/s 754 mmHg 85%
    02:00 -2°C° 0,1 mm 5 m/s 754 mmHg 84%
    03:00 -2°C° 0,1 mm 4 m/s 753 mmHg 83%
    04:00 -2°C° 0,1 mm 4 m/s 753 mmHg 83%
    05:00 -2°C° 0,1 mm 4 m/s 753 mmHg 82%
    06:00 -2°C° 0 mm 4 m/s 752 mmHg 81%
    07:00 -2°C° 0 mm 4 m/s 752 mmHg 80%
    08:00 -2°C° 0,1 mm 4 m/s 752 mmHg 80%
    09:00 -1°C° 0,1 mm 4 m/s 752 mmHg 80%
    10:00 -1°C° 0,1 mm 4 m/s 752 mmHg 80%
    11:00 0°C° 0,1 mm 4 m/s 751 mmHg 80%
    12:00 0°C° 0,1 mm 4 m/s 751 mmHg 80%
    13:00 +1°C° 0,1 mm 4 m/s 750 mmHg 81%
    14:00 +1°C° 0,6 mm 5 m/s 750 mmHg 82%
    15:00 +1°C° 0,6 mm 5 m/s 749 mmHg 83%
    16:00 +1°C° 0,6 mm 6 m/s 748 mmHg 84%
    17:00 -1°C° 2,4 mm 7 m/s 748 mmHg 87%
    18:00 -1°C° 2,4 mm 7 m/s 748 mmHg 90%
    19:00 -2°C° 2,4 mm 7 m/s 748 mmHg 93%
    20:00 -2°C° 1,7 mm 8 m/s 748 mmHg 92%
    21:00 -2°C° 1,7 mm 8 m/s 748 mmHg 92%
    22:00 -2°C° 1,7 mm 8 m/s 748 mmHg 91%
    23:00 -3°C° 0,5 mm 7 m/s 748 mmHg 89%

    27 Februarie, Marţi

    Timp Temperatura Precipitaţii Vânt Presiune Umiditate
    00:00 -3°C° 0,5 mm 7 m/s 748 mmHg 88%
    01:00 -4°C° 0,5 mm 6 m/s 748 mmHg 86%
    02:00 -4°C° 0 mm 5 m/s 749 mmHg 85%
    03:00 -5°C° 0 mm 5 m/s 749 mmHg 83%
    04:00 -5°C° 0 mm 4 m/s 749 mmHg 81%
    05:00 -5°C° 0 mm 4 m/s 750 mmHg 81%
    06:00 -5°C° 0 mm 4 m/s 750 mmHg 81%
    07:00 -7°C° 0 mm 4 m/s 751 mmHg 80%
    08:00 -4°C° 0 mm 3 m/s 751 mmHg 79%
    09:00 -2°C° 0 mm 3 m/s 752 mmHg 78%
    10:00 -1°C° 0 mm 3 m/s 752 mmHg 76%
    11:00 0°C° 0 mm 3 m/s 752 mmHg 77%
    12:00 +1°C° 0 mm 3 m/s 752 mmHg 77%
    13:00 +1°C° 0 mm 3 m/s 753 mmHg 77%
    14:00 +2°C° 0 mm 3 m/s 753 mmHg 76%
    15:00 +2°C° 0 mm 3 m/s 753 mmHg 75%
    16:00 +2°C° 0 mm 3 m/s 754 mmHg 74%
    17:00 +1°C° 0 mm 3 m/s 754 mmHg 75%
    18:00 0°C° 0 mm 3 m/s 755 mmHg 75%
    19:00 -2°C° 0 mm 3 m/s 755 mmHg 75%
    20:00 -2°C° 0 mm 3 m/s 756 mmHg 77%
    21:00 -4°C° 0 mm 4 m/s 756 mmHg 78%
    22:00 -4°C° 0 mm 4 m/s 757 mmHg 79%
    23:00 -5°C° 0 mm 4 m/s 757 mmHg 79%
    Arată mai mult